Tracking 32936 objects as of 17-Jan-2026
HD Live streaming from Space Station
objects crossing your sky now

DMSP 5D-2 F13 DEB

Track DMSP 5D-2 F13 DEB now!
10-day predictions


NORAD ID: 40398
Int'l Code: 1995-015K
Perigee: 837.0 km
Apogee: 845.7 km
Inclination: 98.8 °
Period: 101.6 minutes
Semi major axis: 7212 km
RCS: Unknown
Launch date: March 24, 1995
Source: United States (US)
Launch site: AIR FORCE WESTERN TEST RANGE (AFWTR)

Note: This is SATELLITE DEBRIS
Your satellite tracking list
Your tracking list is empty




NASA's NSSDC Master Catalog

Two Line Element Set (TLE):
1 40398U 95015K   26016.50726591  .00000167  00000-0  10423-3 0  9991
2 40398  98.8040  32.2202 0006031 208.8694 151.2148 14.17380274563051
Source of the keplerian elements: AFSPC